Tracking 27188 objects as of 2-Apr-2023
HD Live streaming from Space Station
objects crossing your sky now

STARLINK-1927

Track STARLINK-1927 now!
10-day predictions
STARLINK-1927 is classified as:


NORAD ID: 47181
Int'l Code: 2020-088BM
Perigee: 531.7 km
Apogee: 537.6 km
Inclination: 53.1 °
Period: 95.2 minutes
Semi major axis: 6905 km
RCS: Unknown
Launch date: November 25, 2020
Source: United States (US)
Launch site: AIR FORCE EASTERN TEST RANGE (AFETR)
Your satellite tracking list
Your tracking list is empty




NASA's NSSDC Master Catalog

Two Line Element Set (TLE):
1 47181U 20088BM  23091.32195652  .00046116  00000-0  25924-2 0  9999
2 47181  53.0541  58.4473 0004310  50.9190 309.2184 15.12854990130616
Source of the keplerian elements: AFSPC